Location: Blue Sky Observatory
(43.1153°N, 70.9036°W)
Time: 19:26:22
(UTC-04:00)

Daily predictions for brighter satellites

Satellite Brightness Start Highest point End
(mag) Time Altitude Azimuth Time Altitude Azimuth Time Altitude Azimuth
BREEZE-M DEB (TANK) 3.9 19:47:15 10° SW 19:51:18 58° SE 20:06:01 10° ENE
Thor Agena Rocket 3.7 19:59:17 10° NNE 20:04:25 53° E 20:09:33 10° S
Cosmos 2154 Rocket 4.3 19:58:42 10° SSE 20:04:40 48° E 20:10:37 10° NNE
Cosmos 1437 2.6 20:02:03 10° S 20:05:13 84° E 20:08:25 10° NNE
Cosmos 44 Rocket 3.2 20:02:28 10° SSW 20:07:12 74° ESE 20:12:05 10° NE
Cosmos 2184 Rocket 4.0 20:02:11 10° S 20:08:21 89° ESE 20:14:34 10° N
Cosmos 2221 2.9 20:04:25 10° SSW 20:08:38 68° W 20:12:54 10° N
Cosmos 1346 Rocket 3.8 20:06:35 10° SSW 20:10:34 53° WNW 20:14:36 10° N
Cosmos 1300 3.5 20:10:47 10° SSW 20:14:32 57° W 20:18:20 10° N
Cosmos 2360 Rocket 2.9 20:10:51 10° SW 20:16:24 60° WNW 20:21:59 10° NNE
Cosmos 1805 Rocket 3.5 20:12:48 10° N 20:17:11 90° E 20:21:30 10° S
NOSS 2-1 (C) 3.1 20:15:29 10° SSW 20:19:01 59° ESE 20:22:55 10° NE
NOSS 2-1 (D) 3.1 20:16:26 10° SSW 20:20:00 62° ESE 20:23:55 10° NE
OE (NEXTSAT) 4.4 20:16:34 10° SW 20:20:05 62° SSE 20:23:37 10° ENE
Resurs 01 Rocket 1.7 20:16:24 10° SSE 20:20:46 58° ENE 20:25:09 10° N
Cosmos 2333 Rocket 2.6 20:17:09 10° S 20:22:21 39° ESE 20:27:34 10° NE
ATLAS 2AS CENTAUR R/B 3.3 20:16:31 10° NNW 20:24:21 55° NE 20:30:50 13° ESE
Cosmos 2341 Rocket 4.3 20:18:48 10° SSE 20:24:50 47° E 20:30:51 10° NNE
Cosmos 1328 Rocket 4.2 20:21:28 10° SSE 20:25:29 36° E 20:29:33 10° NNE
CZ-2D R/B 4.3 20:23:11 10° S 20:26:50 46° W 20:30:32 10° NNW
COSMOS 2428 2.7 20:21:48 10° SSW 20:27:30 73° ESE 20:33:14 10° NNE
Meteor 2-15 4.5 20:21:49 10° N 20:27:59 85° E 20:34:06 10° S
Spot 2 Rocket 3.6 20:24:14 10° SSE 20:29:13 57° ENE 20:34:13 10° N
Cosmos 2333 4.1 20:25:11 10° SSW 20:30:50 80° ESE 20:36:29 10° NNE
Cosmos 1470 Rocket 4.2 20:30:37 10° N 20:34:41 36° ENE 20:37:40 16° SE
Cosmos 1844 Rocket 2.8 20:29:19 10° NNW 20:35:01 83° WSW 20:40:40 10° SSE
Cosmos 1844 3.7 20:29:24 10° NNW 20:35:07 78° ENE 20:40:34 11° SSE
Meteor 2-21 4.5 20:31:06 10° S 20:37:15 87° E 20:43:28 10° N
SJ-11-01 4.2 20:33:39 10° SSE 20:38:17 75° ENE 20:42:59 10° N
Cosmos 1455 2.3 20:35:07 10° S 20:38:50 53° E 20:42:36 10° NNE
Cosmos 1892 2.8 20:39:36 10° N 20:43:31 84° W 20:47:23 10° S
Cosmos 2237 Rocket 2.8 20:39:18 10° SSE 20:44:17 34° ESE 20:49:17 10° NE
Cosmos 2219 Rocket 2.1 20:39:36 10° SSW 20:45:13 70° ESE 20:50:52 10° NNE
ERS-2 3.7 20:41:50 10° SSW 20:45:13 35° W 20:48:38 10° NNW
Lacrosse 5 4.3 20:45:02 10° NW 20:48:17 17° N 20:51:32 10° NE
BREEZE-M DEB (TANK) 2.2 20:44:02 10° WNW 20:48:34 83° NNE 20:49:38 31° ESE
Cosmos 1408 3.3 20:46:12 10° N 20:49:34 34° ENE 20:50:50 26° ESE
NOSS 2-1 (E) 3.4 20:46:44 10° SW 20:50:21 72° NW 20:54:28 10° NNE
NOSS 0 Rocket 4.1 20:45:56 10° S 20:51:50 50° ESE 20:57:47 10° NE
Cosmos 2278 Rocket 2.6 20:46:36 10° NNW 20:52:07 48° ENE 20:55:31 22° SE
ATLAS CENTAUR R/B 1.3 20:49:05 10° SSW 20:52:34 44° ESE 20:56:13 10° NE
Cosmos 1666 Rocket 4.3 20:53:05 10° NNW 20:57:29 54° W 21:01:49 10° S
SL-8 Rocket 4.1 20:51:30 10° SSE 20:57:37 55° E 21:03:43 10° NNE
USA 186 3.7 20:56:23 10° SW 20:58:01 18° W 20:59:40 10° NW
NOAA 11 4.2 20:53:29 11° SSE 20:58:45 88° ENE 21:04:17 10° NNW
Genesis I 3.4 20:55:10 10° NNW 20:59:14 59° NE 21:01:00 31° ESE
Resurs 1-3 4.4 20:54:58 10° S 20:59:15 52° W 21:03:33 10° NNW
H-2A R/B 2.7 20:58:30 24° ESE 21:00:43 35° ENE 21:05:14 10° N
NOSS 3-3 (A) 3.9 20:56:09 10° SSW 21:02:10 85° SE 21:08:50 10° NE
NOSS 3-3 (C) 3.9 20:56:15 10° SSW 21:02:17 84° ESE 21:08:56 10° NE
OAO 2 Rocket 4.5 20:58:39 10° WSW 21:03:04 29° SSW 21:04:58 23° SSE
Cosmos 1933 Rocket 3.6 20:59:13 10° N 21:03:35 60° E 21:05:47 27° SSE
YAOGAN 6 4.5 21:03:18 10° SSW 21:06:28 29° W 21:09:41 10° NNW
USA 267 3.7 21:04:33 10° ENE 21:10:24 34° SE 21:16:13 10° S
ERS-1 Rocket 3.5 21:10:18 29° ESE 21:12:09 41° ENE 21:16:50 10° N
Cosmos 1371 Rocket 4.4 21:09:58 24° SSE 21:12:36 40° ESE 21:17:36 10° NE
Cosmos 1151 Rocket 2.9 21:13:26 15° S 21:16:58 87° E 21:21:15 10° N
Cosmos 220 Rocket 4.2 21:12:40 10° NNW 21:17:00 68° WSW 21:19:12 27° S
Cosmos 1869 Rocket 4.4 21:21:31 10° N 21:25:28 32° ENE 21:25:34 32° ENE
Cosmos 1825 2.1 21:23:42 10° N 21:27:31 87° W 21:28:24 51° S
Cosmos 864 Rocket 4.4 21:25:49 21° S 21:30:04 70° E 21:36:11 10° NNE
Cosmos 2098 Rocket 3.0 21:31:01 38° SSE 21:32:46 70° E 21:36:45 10° NNE
SL-16 R/B 2.8 21:33:18 34° E 21:33:18 34° E 21:37:56 10° NE
Cosmos 2056 Rocket 3.7 21:32:53 40° SSE 21:34:19 50° ESE 21:39:33 10° NNE
Cosmos 1869 3.2 21:34:42 52° S 21:35:39 86° E 21:39:42 10° N
Cosmos 2228 Rocket 3.7 21:32:02 10° SSW 21:36:20 55° W 21:40:40 10° N
Helios 1B rocket 4.0 21:36:03 10° NE 21:38:01 22° ENE 21:38:01 22° ENE
SL-8 R/B 3.6 21:36:14 10° SW 21:40:57 63° SSE 21:41:34 57° ESE
Cosmos 1515 Rocket 4.5 21:37:33 10° SSW 21:41:51 48° WNW 21:46:12 10° N
USA 234 4.4 21:40:32 17° ENE 21:44:58 36° NNE 21:50:49 10° NW
Cosmos 405 3.5 21:42:01 10° N 21:44:48 49° NNE 21:44:48 49° NNE
ARGOS 3.3 21:44:34 34° S 21:46:55 71° WSW 21:52:17 10° NNW
Cosmos 1943 Rocket 4.5 21:47:22 10° NNE 21:48:32 11° NE 21:49:42 10° NE
GEOS 3 Rocket 3.5 21:43:50 10° NE 21:49:13 76° SE 21:54:29 10° SSW
Helios 1A 2.9 21:49:42 66° ENE 21:49:42 66° ENE 21:53:52 10° N
Cosmos 1624 Rocket 3.8 21:50:09 46° S 21:51:42 75° ESE 21:56:54 10° NNE
BREEZE-M DEB (TANK) 4.0 21:49:31 10° WNW 21:51:02 26° WNW 21:51:02 26° WNW
SL-08 RB Rocket 3.7 21:52:57 56° SSW 21:53:46 73° WSW 21:58:16 10° NNW
MetOp-B 4.3 21:51:53 39° S 21:53:52 70° WSW 21:59:14 10° NNW
Cosmos 1190 Rocket 3.9 21:50:18 10° NNW 21:55:37 75° ENE 21:56:23 63° SE
Resurs 01 Rocket 4.4 21:55:20 10° WSW 21:57:37 14° W 21:59:54 10° WNW
CZ-2C R/B 4.5 21:58:35 21° ENE 21:58:35 21° ENE 22:01:44 10° NNE
Cosmos 1980 4.3 21:54:34 10° SW 22:00:08 56° WNW 22:05:46 10° NNE
Cosmos 2297 3.7 21:56:28 10° NNW 22:02:09 68° ENE 22:02:58 60° ESE
Cosmos 1727 Rocket 4.0 21:56:32 10° N 22:02:43 78° W 22:04:57 42° S
Landsat 7 4.1 22:03:40 54° ENE 22:03:40 54° ENE 22:08:09 10° N
BREEZE-M DEB (TANK) 3.7 22:00:51 10° WNW 22:04:58 28° N 22:05:13 27° N
Cosmos 1140 Rocket 3.9 22:01:24 10° N 22:06:25 47° ENE 22:06:25 47° ENE
Cosmos 2333 Rocket 3.8 22:01:33 10° WSW 22:06:39 33° NW 22:11:46 10° N
Cosmos 1821 Rocket 4.2 22:08:27 51° ESE 22:08:48 52° E 22:14:55 10° NNE
Cosmos 1954 Rocket 4.3 22:04:24 10° N 22:09:29 51° ENE 22:09:29 51° ENE
Cosmos 2369 Rocket 3.8 22:08:22 10° N 22:12:35 21° NE 22:13:27 20° ENE
Meteor 2-10 Rocket 4.1 22:11:14 29° SSW 22:14:10 63° WNW 22:19:57 10° N
ATLAS 2AS CENTAUR R/B 3.8 22:08:03 10° NW 22:15:07 39° WSW 22:18:17 27° SSW
DMSP B5D2-2 3.9 22:12:23 10° NNE 22:17:40 90° ESE 22:18:05 77° SSW
Cosmos 1862 4.0 22:15:07 10° NNW 22:18:24 53° NW 22:18:24 53° NW
BREEZE M DEB (TANK) 4.5 22:02:23 10° WSW 22:19:20 62° NNW 22:22:58 19° NE
Spot 1 4.4 22:20:20 78° NNE 22:20:20 78° NNE 22:24:56 10° NNW
IGS 5A 4.5 22:21:28 40° NNE 22:21:28 40° NNE 22:24:21 10° N
Terra 2.3 22:21:54 49° NE 22:21:54 49° NE 22:25:51 10° N
Cosmos 2123 Rocket 4.4 22:18:04 10° N 22:24:07 45° ENE 22:24:08 45° ENE
Cosmos 2237 Rocket 3.6 22:23:04 10° SW 22:28:15 37° WNW 22:33:28 10° N
SPOT 5 3.2 22:30:51 57° W 22:30:51 57° W 22:35:00 10° NNW
SPOT 1/Viking Rocket 3.7 22:31:21 66° WSW 22:31:30 66° WSW 22:36:43 10° NNW
ATLAS CENTAUR R/B 3.9 22:29:04 10° W 22:31:47 19° NW 22:34:35 10° N
Lacrosse 5 3.6 22:28:43 10° NNW 22:32:51 24° NNE 22:34:13 22° NE
Cosmos 2278 Rocket 3.8 22:31:17 10° NW 22:35:52 26° WSW 22:37:23 23° SW
CZ-2C R/B 4.2 22:32:40 10° NNE 22:35:16 24° NE 22:35:16 24° NE
CZ-4C R/B 4.1 22:41:44 18° NE 22:41:44 18° NE 22:43:23 10° NE
Cosmos 1535 Rocket 4.4 22:39:34 74° E 22:39:34 74° E 22:45:53 10° NNE
Cosmos 405 Rocket 4.5 22:41:01 31° NNW 22:41:01 31° NNW 22:43:31 10° N
H-2A R/B 3.4 22:39:07 27° WSW 22:40:10 29° W 22:44:29 10° NW
NOSS 3-4 (A) 3.8 22:38:46 10° NW 22:45:48 69° WSW 22:46:43 63° SSW
NOSS 3-4 (C) 3.8 22:38:52 10° NW 22:45:54 70° WSW 22:46:49 63° SSW
Cosmos 407 Rocket 4.5 22:43:27 10° NW 22:48:01 38° W 22:48:01 38° W
ATLAS 5 CENTAUR R/B 3.6 22:43:36 10° NNW 22:48:41 30° NE 22:49:39 29° ENE
USA 267 3.4 22:47:11 10° NE 22:53:43 73° NW 23:00:13 10° WSW
Cosmos 1605 Rocket 4.3 22:59:50 56° NE 22:59:50 56° NE 23:05:11 10° NNE
Cosmos 2344 3.6 23:10:53 45° SW 23:13:37 80° NW 23:22:09 10° NE
SL-16 R/B 3.4 23:15:04 30° W 23:16:55 37° WNW 23:22:09 10° N
Cosmos 1452 Rocket 4.4 23:18:15 47° NNW 23:18:15 47° NNW 23:22:33 10° N
USA 234 3.2 23:27:52 80° NNW 23:27:52 80° NNW 23:34:04 10° NW
Cosmos 1943 Rocket 3.1 23:28:07 10° NNW 23:32:07 43° NNE 23:32:07 43° NNE
Mayak 1.6 23:37:41 10° NNE 23:37:59 12° NNE 23:37:59 12° NNE
Cosmos 1943 4.4 23:51:45 35° NNE 23:51:45 35° NNE 23:54:58 10° NNE
SeaSat 1 4.0 23:55:37 33° N 23:55:37 33° N 23:58:32 10° NNW
